Orbital Elements at Epoch 2459200.5 (2020-Dec-17.0) TDB
Reference: JPL 21 (heliocentric ecliptic J2000)
Element | Value | Uncertainty (1-sigma) | Units |
e | .1945623313376058 | 4.1682e-08 | |
a | 2.707431117214438 | 1.1885e-08 | au |
q | 2.180667007113218 | 1.1321e-07 | au |
i | 10.9106970109105 | 4.1673e-06 | deg |
node | 255.2308460459171 | 2.5008e-05 | deg |
peri | 96.19560796501285 | 2.8389e-05 | deg |
M | 95.36760469725735 | 1.1136e-05 | deg |
tp | 2458769.444763804422 (2019-Oct-12.94476380) | 5.0284e-05 | TDB |
period | 1627.176078533415 4.45 | 1.0714e-05 2.933e-08 | d yr |
n | .2212421905344568 | 1.4568e-09 | deg/d |
Q | 3.234195227315657 | 1.4197e-08 | au |
|
| | Orbit Determination Parameters
Additional Information
|